FW4030 Weather Reports


Display with metric or nautical units.
time (UTC)temp
F
wind
direction
speed
MPH
gust
MPH
rain 1hr
in
rain 24hr
in
rain mn
in
humidity
%
barometer
mb
20260903130818 69 146 4.0 9.0 0.00 0.00 0.00 86 1027.5
20260903124821 68 116 6.0 8.0 0.00 0.00 0.00 87 1027.3
20260903123918 69 126 4.0 7.0 0.00 0.00 0.00 88 1027.2
20260903122919 68 129 5.0 9.0 0.00 0.00 0.00 90 1027.3
20260903120920 69 116 5.0 10.0 0.00 0.00 0.00 94 1027.1
20260903120820 69 118 5.0 8.0 0.00 0.00 0.00 94 1027.2
20260903115819 68 150 5.0 10.0 0.00 0.00 0.00 96 1027.2
20260903114820 67 119 5.0 9.0 0.00 0.00 0.00 96 1027.4
20260903112818 65 146 5.0 9.0 0.00 0.00 0.00 96 1027.5
20260903111819 65 162 7.0 10.0 0.00 0.00 0.00 95 1027.7
20260903104920 64 115 3.0 5.0 0.00 0.00 0.00 95 1027.4
20260903103920 64 134 4.0 10.0 0.00 0.00 0.00 95 1027.4
20260903101920 64 131 4.0 8.0 0.00 0.00 0.00 95 1027.4
20260903094920 63 126 6.0 9.0 0.00 0.00 0.00 94 1027.2
20260903094820 63 138 7.0 11.0 0.00 0.00 0.00 94 1027.4
20260903094718 63 128 4.0 7.0 0.00 0.00 0.00 94 1027.5
20260903093719 63 125 6.0 13.0 0.00 0.00 0.00 94 1027.2
20260903092719 63 121 5.0 9.0 0.00 0.00 0.00 94 1027.4
20260903091721 63 131 5.0 8.0 0.00 0.00 0.00 93 1027.3
20260903090721 62 123 3.0 5.0 0.00 0.00 0.00 93 1027.3
20260903090620 62 116 4.0 10.0 0.00 0.00 0.00 93 1027.3
20260903085622 62 121 3.0 6.0 0.00 0.00 0.00 93 1027.2
20260903083620 62 116 6.0 9.0 0.00 0.00 0.00 92 1027.2
20260903082620 62 113 7.0 11.0 0.00 0.00 0.00 91 1027.2
20260903082519 62 116 7.0 10.0 0.00 0.00 0.00 91 1027.3
20260903081519 62 117 3.0 5.0 0.00 0.00 0.00 91 1027.2
20260903080520 62 112 4.0 7.0 0.00 0.00 0.00 89 1027.2
20260903075522 61 112 2.0 4.0 0.00 0.00 0.00 88 1027.1
20260903074519 62 112 6.0 10.0 0.00 0.00 0.00 84 1027.4
20260903073619 63 112 7.0 11.0 0.00 0.00 0.00 80 1027.5
20260903072620 65 114 8.0 12.0 0.00 0.00 0.00 76 1027.4
20260903071619 65 112 7.0 12.0 0.00 0.00 0.00 75 1027.2
20260903070619 65 117 6.0 9.0 0.00 0.00 0.00 75 1027.3
20260903065718 65 122 5.0 7.0 0.00 0.00 0.00 75 1027.2
20260903065621 65 119 5.0 9.0 0.00 0.00 0.00 75 1027.2
20260903064620 65 116 4.0 8.0 0.00 0.00 0.00 75 1027.1
20260903063621 65 116 6.0 9.0 0.00 0.00 0.00 75 1027.0
20260903062718 65 114 5.0 10.0 0.00 0.00 0.00 75 1027.0
20260903061719 65 123 6.0 14.0 0.00 0.00 0.00 75 1026.9
20260903060719 65 126 5.0 7.0 0.00 0.00 0.00 75 1027.0
20260903060620 65 127 7.0 11.0 0.00 0.00 0.00 75 1027.0
20260903055620 65 125 7.0 10.0 0.00 0.00 0.00 76 1027.1
20260903054620 65 136 7.0 11.0 0.00 0.00 0.00 76 1027.1
20260903052718 64 136 7.0 11.0 0.00 0.00 0.00 76 1026.9
20260903051719 64 125 7.0 11.0 0.00 0.00 0.00 75 1026.7
20260903050718 64 119 6.0 10.0 0.00 0.00 0.00 75 1026.6
20260903045719 64 125 6.0 9.0 0.00 0.00 0.00 75 1026.6
20260903045618 64 125 5.0 8.0 0.00 0.00 0.00 75 1026.6
20260903044618 64 112 7.0 10.0 0.00 0.00 0.00 74 1026.7
20260903043518 64 114 5.0 8.0 0.00 0.00 0.00 74 1027.1
20260903042518 64 116 5.0 7.0 0.00 0.00 0.00 74 1027.2
20260903041520 64 112 1.0 4.0 0.00 0.00 0.00 74 1027.3
20260903041419 64 120 4.0 8.0 0.00 0.00 0.00 74 1027.3
20260903040418 63 116 6.0 10.0 0.00 0.00 0.00 75 1027.1
20260903035418 63 120 5.0 7.0 0.00 0.00 0.00 75 1027.3
20260903033420 63 127 4.0 7.0 0.00 0.00 0.00 76 1027.3
20260903032421 63 125 2.0 3.0 0.00 0.00 0.00 76 1027.5
20260903031420 63 125 2.0 4.0 0.00 0.00 0.00 76 1027.7
20260903022519 63 117 4.0 7.0 0.00 0.00 0.00 76 1028.0
20260903021519 63 126 3.0 6.0 0.00 0.00 0.00 76 1028.1
20260903020518 63 130 3.0 5.0 0.00 0.00 0.00 75 1028.1
20260903015521 63 113 3.0 6.0 0.00 0.00 0.00 75 1028.2
20260903014519 64 119 4.0 7.0 0.00 0.00 0.00 75 1028.2
20260903012618 64 134 4.0 7.0 0.00 0.00 0.00 75 1028.4
20260903011618 64 120 2.0 3.0 0.00 0.00 0.00 75 1028.7
20260903010619 64 130 3.0 5.0 0.00 0.00 0.00 75 1028.7
20260903005618 64 121 3.0 5.0 0.00 0.00 0.00 75 1028.8
20260903004618 64 124 3.0 5.0 0.00 0.00 0.00 75 1028.8
20260903003620 64 119 3.0 6.0 0.00 0.00 0.00 75 1028.7
20260903002618 64 120 2.0 3.0 0.00 0.00 0.00 75 1028.9
20260903001619 64 119 6.0 9.0 0.00 0.00 0.00 75 1029.1
20260903000618 64 133 3.0 7.0 0.00 0.00 0.00 75 1029.2
20260902235620 64 114 1.0 2.0 0.00 0.00 0.00 75 1029.3
20260902234718 64 114 3.0 4.0 0.00 0.00 0.00 75 1029.2
20260902233718 64 114 4.0 6.0 0.00 0.00 0.00 75 1029.3
20260902232718 64 112 3.0 5.0 0.00 0.00 0.00 75 1029.3
20260902232620 65 115 4.0 6.0 0.00 0.00 0.00 75 1029.3
20260902231618 65 127 3.0 5.0 0.00 0.00 0.00 74 1029.4
20260902230619 65 115 5.0 8.0 0.00 0.00 0.00 74 1029.5
20260902230520 65 121 5.0 8.0 0.00 0.00 0.00 74 1029.5
20260902223719 65 120 4.0 7.0 0.00 0.00 0.00 74 1029.8
20260902222719 65 117 4.0 7.0 0.00 0.00 0.00 74 1029.7
20260902222622 65 147 2.0 5.0 0.00 0.00 0.00 74 1029.7
20260902221618 65 120 3.0 7.0 0.00 0.00 0.00 74 1029.7
20260902220620 64 129 4.0 7.0 0.00 0.00 0.00 75 1029.8
20260902215713 64 116 5.0 7.0 0.00 0.00 0.00 76 1029.9
20260902214712 64 131 2.0 4.0 0.00 0.00 0.00 76 1029.9
20260902214611 64 127 2.0 4.0 0.00 0.00 0.00 76 1029.9
20260902214514 64 127 4.0 5.0 0.00 0.00 0.00 76 1029.9
20260902213611 64 126 2.0 5.0 0.00 0.00 0.00 77 1029.9
20260902212611 64 135 1.0 2.0 0.00 0.00 0.00 77 1030.0
20260902211613 64 135 1.0 5.0 0.00 0.00 0.00 77 1030.0
20260902210613 64 112 1.0 2.0 0.00 0.00 0.00 77 1030.3
20260902210512 64 114 0.0 2.0 0.00 0.00 0.00 77 1030.1
20260902205511 64 131 2.0 4.0 0.00 0.00 0.00 77 1030.1
20260902204414 64 135 1.0 2.0 0.00 0.00 0.00 78 1030.1
20260902203413 64 135 1.0 2.0 0.00 0.00 0.00 78 1030.3
20260902202511 64 135 2.0 4.0 0.00 0.00 0.00 78 1030.3
20260902202413 64 135 2.0 4.0 0.00 0.00 0.00 78 1030.3
20260902201412 64 134 0.0 1.0 0.00 0.00 0.00 78 1030.3
20260902195413 64 112 2.0 5.0 0.00 0.00 0.00 79 1030.4
20260902194414 64 135 1.0 2.0 0.00 0.00 0.00 80 1030.4
20260902193413 64 135 0.0 1.0 0.00 0.00 0.00 79 1030.5
20260902192411 64 112 2.0 3.0 0.00 0.00 0.00 79 1030.6
20260902191413 64 112 0.0 1.0 0.00 0.00 0.00 79 1030.4
20260902190412 65 112 2.0 3.0 0.00 0.00 0.00 79 1030.4
20260902184411 65 112 1.0 2.0 0.00 0.00 0.00 79 1030.4
20260902183511 65 135 0.0 0.0 0.00 0.00 0.00 78 1030.3
20260902182513 65 112 1.0 2.0 0.00 0.00 0.00 78 1030.4
20260902182412 65 112 0.0 2.0 0.00 0.00 0.00 78 1030.4
20260902181413 66 112 1.0 2.0 0.00 0.00 0.00 78 1030.4
20260902180511 66 112 1.0 2.0 0.00 0.00 0.00 77 1030.3
20260902175513 66 180 1.0 2.0 0.00 0.00 0.00 77 1030.2
20260902174514 66 180 2.0 4.0 0.00 0.00 0.00 77 1030.1
20260902173512 66 112 2.0 5.0 0.00 0.00 0.00 78 1030.2
20260902172512 66 180 2.0 3.0 0.00 0.00 0.00 79 1030.1
20260902171512 66 180 1.0 2.0 0.00 0.00 0.00 80 1030.1
20260902170511 66 180 0.0 0.0 0.00 0.00 0.00 80 1030.1
20260902165511 65 180 1.0 1.0 0.00 0.00 0.00 81 1030.1
20260902164512 65 180 2.0 3.0 0.00 0.00 0.00 82 1030.2
20260902163512 65 180 0.0 2.0 0.00 0.00 0.00 81 1030.3
20260902162513 65 180 2.0 3.0 0.00 0.00 0.00 80 1030.3
20260902161611 65 180 3.0 4.0 0.00 0.00 0.00 81 1030.1
20260902160613 65 180 0.0 1.0 0.00 0.00 0.00 80 1030.3
20260902155711 65 180 0.0 1.0 0.00 0.00 0.00 79 1030.2
20260902154711 65 180 0.0 2.0 0.00 0.00 0.00 77 1030.2
20260902153713 67 180 1.0 2.0 0.00 0.00 0.00 72 1030.3
20260902152810 68 130 2.0 3.0 0.00 0.00 0.00 66 1030.4
20260902151813 69 141 5.0 8.0 0.00 0.00 0.00 64 1030.4
20260902150812 70 119 3.0 5.0 0.00 0.00 0.00 63 1030.4
20260902145813 70 180 2.0 4.0 0.00 0.00 0.00 62 1030.4
20260902144811 70 180 4.0 8.0 0.00 0.00 0.00 60 1030.4
20260902142831 71 156 4.0 7.0 0.00 0.00 0.00 61 1030.3
20260902141835 71 158 6.0 9.0 0.00 0.00 0.00 62 1030.4
20260902140834 71 132 3.0 4.0 0.00 0.00 0.00 62 1030.2
20260902135932 72 139 3.0 6.0 0.00 0.00 0.00 61 1030.3
20260902135031 73 120 7.0 11.0 0.00 0.00 0.00 61 1030.3
20260902134034 73 170 6.0 10.0 0.00 0.00 0.00 61 1030.2
20260902132933 75 139 4.0 6.0 0.00 0.00 0.00 59 1030.3
20260902131933 75 136 5.0 9.0 0.00 0.00 0.00 61 1030.4